Location: Dittelbrunn
(50.0738°N, 10.2196°E)
Time: 07:08:26
(UTC+00:00)

COSMOS 2455 - Pass Details

Date: 18 September 2020
Orbit: 898 x 911 km, 67.1° (Epoch: 20 October)

Event Time Altitude Azimuth Distance (km) Brightness Sun altitude
Exits shadow 22:35:51 28° 28° (NNE) 1,651 4.5 -37.9°
Drops below altitude 10° 22:38:34 10° 34° (NNE) 2,608 5.7 -38.0°
Sets 22:41:06 0° 36° (NE) 3,553 6.4 -38.1°
